Lapse_Rate
5.5 5.4 5.2 5.1 5.1 4.9 4.8 4.8 4.6 4.3 3.9 3.7 3.8 4.1 4.6 4.9 5.2 5.4 5.3 5.2 5.4 5.4 5.8 5.6 5.6 5.7 5.6 5.7 5.6 5.3 5.1 5.2 5.4 5.8 6.3 6.8 7.3 7.3 7.4 7.3 7.3 7.8 8.0 7.9 7.7
5.8 5.6 5.3 5.1 4.9 4.6 4.4 4.0 3.7 3.4 3.7 4.4 4.8 5.1 5.3 5.3 5.5 5.8 5.8 5.8 5.9 5.8 6.4 6.3 6.1 5.9 5.7 5.8 5.6 5.2 4.8 4.9 5.3 5.6 6.3 6.6 7.0 7.3 7.2 7.3 7.3 7.5 7.9 7.9 7.8
5.8 5.6 5.4 5.1 4.6 4.2 3.9 3.4 3.4 4.3 4.8 5.1 5.6 5.7 5.6 5.5 5.6 5.7 5.9 6.1 6.2 6.3 6.4 6.3 6.2 6.2 6.1 5.9 5.6 5.5 5.3 5.2 5.0 5.2 6.1 6.5 6.5 6.8 7.2 7.0 7.4 7.9 7.9 8.0 8.0
5.9 5.6 5.3 4.8 4.4 4.1 3.7 4.1 4.7 4.8 5.2 5.5 5.8 6.0 5.8 5.4 5.4 5.5 5.9 6.1 6.4 6.4 6.4 6.4 6.3 6.3 6.2 6.3 5.9 5.6 5.8 5.5 5.2 5.1 5.8 6.5 6.3 6.5 6.8 7.1 7.4 7.6 7.5 7.7 7.8
6.0 5.6 5.0 4.7 4.7 4.1 4.4 4.8 4.9 5.2 5.7 5.9 6.2 6.1 5.9 5.8 5.6 5.3 5.6 6.1 6.4 6.6 6.4 6.3 6.0 6.1 6.0 6.4 6.5 6.1 5.8 5.3 5.6 5.4 5.7 6.2 6.2 6.3 6.6 7.2 7.5 7.4 7.4 7.7 7.6
6.1 5.7 5.1 5.0 4.5 4.6 4.8 5.1 5.2 5.4 5.8 6.1 6.3 6.2 6.2 6.0 5.7 5.3 5.4 5.7 6.3 6.6 6.5 6.2 5.8 5.8 5.4 5.6 6.1 6.2 6.0 5.6 5.7 5.8 5.8 6.1 6.1 6.0 6.5 7.0 7.5 7.5 7.5 7.7 7.6
6.2 5.8 5.5 5.1 4.8 5.0 5.2 5.3 5.4 5.5 6.0 6.4 6.3 6.3 6.2 6.0 5.5 5.4 5.3 5.5 6.0 6.4 6.4 6.2 5.9 5.8 5.5 5.1 5.5 5.8 5.8 5.8 5.9 6.1 6.0 6.0 5.9 5.8 6.5 6.9 7.6 7.7 7.5 7.5 7.6
6.2 6.2 5.8 5.4 5.2 5.4 5.4 5.4 5.5 5.7 6.2 6.5 6.4 6.3 6.3 6.0 5.5 5.5 5.2 5.5 5.8 6.1 6.3 6.2 6.1 5.9 5.6 5.4 5.6 5.7 5.6 5.9 6.4 6.7 6.8 6.5 5.8 5.9 6.3 6.9 7.4 7.8 7.5 7.5 7.5
6.3 6.5 6.0 5.8 5.8 5.6 5.6 5.5 5.6 5.8 6.3 6.5 6.4 6.1 6.1 6.0 5.7 5.2 5.3 5.5 5.6 5.9 6.1 6.1 6.0 6.3 6.0 5.7 5.6 5.6 5.6 5.8 6.1 6.8 7.1 6.7 5.7 6.1 6.4 6.9 7.1 7.4 7.3 7.5 7.6
6.4 6.5 6.1 6.1 6.1 5.9 5.8 5.7 5.7 5.9 6.3 6.6 6.4 5.9 5.9 5.7 5.9 5.6 5.4 5.4 5.7 6.2 6.5 6.2 6.2 6.2 6.2 6.1 5.7 5.6 5.3 5.4 5.8 6.6 7.1 6.8 6.3 6.1 6.4 7.0 7.2 7.3 7.2 7.3 7.6
6.4 6.4 6.3 6.3 6.2 6.3 6.0 5.9 5.9 6.2 6.5 6.6 6.4 6.1 6.0 5.7 5.3 5.7 5.8 5.9 6.3 6.8 6.6 6.6 6.5 6.4 6.6 6.5 6.3 5.7 5.5 5.7 6.0 7.0 6.9 6.9 6.6 6.3 6.6 7.0 7.3 7.2 7.1 7.5 7.7
6.4 6.4 6.5 6.5 6.3 6.5 6.3 6.1 5.9 6.1 6.6 6.5 6.5 6.4 6.2 5.8 5.5 5.7 5.9 5.8 6.4 6.8 6.7 6.7 6.9 7.1 7.0 6.6 6.4 6.1 5.8 5.9 6.3 6.9 7.0 7.1 6.7 7.0 6.7 6.9 7.2 7.4 7.3 7.4 7.4
6.5 6.5 6.6 6.6 6.4 6.6 6.3 6.1 6.0 6.1 6.4 6.6 6.9 6.8 6.7 6.3 5.9 5.8 5.8 5.8 6.1 6.5 6.8 6.7 6.9 6.8 6.6 6.8 6.4 6.3 6.0 6.6 6.7 7.4 7.4 7.3 6.9 7.1 6.9 6.9 7.0 7.2 7.2 7.3 7.3
6.7 6.5 6.6 6.5 6.4 6.6 6.3 6.1 6.1 6.0 6.2 6.8 6.9 7.0 7.0 6.8 6.5 6.4 6.1 5.8 6.1 6.8 6.6 6.6 6.8 6.7 6.4 6.4 6.4 6.2 6.8 7.0 7.3 7.4 7.5 7.5 6.6 7.3 7.2 7.0 6.9 7.0 7.2 7.2 7.4
6.8 6.6 6.7 6.5 6.4 6.5 6.3 6.1 6.1 6.0 4.2 6.9 7.1 7.1 7.1 7.0 6.9 6.8 6.4 5.9 6.0 6.1 6.7 6.8 6.5 6.3 6.2 6.1 6.4 6.4 7.0 7.2 7.5 7.5 7.8 7.9 7.5 7.7 7.5 7.1 7.0 7.0 7.2 7.4 7.5
6.9 6.6 6.7 6.6 6.4 6.5 6.3 6.1 6.1 6.0 5.2 7.0 7.2 7.2 7.4 7.4 7.3 7.1 6.7 6.4 6.3 6.3 6.4 6.5 6.4 6.2 6.3 6.3 6.4 6.7 7.2 7.3 7.4 7.5 6.8 8.0 7.7 7.8 7.5 7.3 7.4 7.4 7.5 7.5 7.4
6.9 6.7 6.7 6.5 6.4 6.3 6.2 6.1 5.9 5.8 6.6 6.8 7.1 7.3 7.4 7.6 7.5 7.4 7.0 6.7 6.4 6.3 6.4 6.3 6.5 6.3 6.5 6.3 6.5 6.8 6.9 6.8 6.6 6.3 6.2 7.8 7.7 7.9 7.6 7.6 7.5 7.3 7.2 7.1 7.1
6.8 6.8 6.5 6.5 6.4 6.2 6.1 5.9 5.8 6.5 6.6 6.6 6.8 7.1 7.3 7.5 7.8 7.7 7.5 7.3 7.0 6.4 6.4 6.4 6.4 6.3 6.2 6.6 6.9 7.0 7.1 7.3 6.8 5.8 5.9 7.0 7.5 7.5 7.5 7.6 7.4 7.1 7.2 7.3 7.1
6.8 6.8 6.4 6.4 6.3 6.2 6.1 6.0 6.5 6.6 6.6 6.6 6.8 7.0 7.2 7.3 7.4 7.5 7.8 7.5 7.4 7.1 6.6 6.4 6.5 6.6 6.7 6.6 6.9 6.8 7.0 7.1 7.2 6.7 6.3 7.7 7.7 7.9 7.7 7.6 7.4 7.5 7.4 7.3 7.0
6.7 6.8 6.5 6.3 6.3 6.0 6.0 6.1 6.3 6.5 6.5 6.6 6.5 6.6 6.9 7.1 7.3 7.4 7.7 7.7 7.6 7.6 7.1 6.9 6.7 6.6 6.6 6.8 6.7 6.8 7.2 7.2 7.3 6.2 6.4 6.7 8.0 8.0 7.6 7.4 7.4 7.4 7.3 7.1 6.9
6.7 6.8 6.7 6.4 6.3 6.0 6.0 6.1 6.2 6.4 6.4 6.4 6.4 6.3 6.6 6.8 7.1 7.4 7.8 7.9 7.7 7.7 7.3 7.1 7.0 6.8 6.4 6.4 6.4 6.7 7.0 7.4 7.3 6.8 6.7 6.6 7.2 7.4 7.3 7.0 7.0 7.0 6.9 6.8 6.6
6.5 6.7 6.7 6.5 6.2 6.1 6.1 6.1 6.2 6.3 6.3 6.2 6.4 6.4 6.4 6.5 6.9 7.1 7.6 7.6 7.5 7.4 7.3 7.1 6.8 6.6 6.4 6.3 7.0 6.8 7.0 7.4 6.5 7.6 7.3 7.2 6.3 7.2 7.0 6.6 6.5 6.5 6.4 6.4 6.3
6.4 6.5 6.7 6.5 6.3 6.3 6.0 6.0 6.1 6.1 6.2 6.1 6.2 6.3 6.3 6.4 6.5 7.1 7.2 7.3 7.2 7.2 7.2 7.3 7.2 6.3 6.3 6.5 6.9 6.9 7.2 7.0 6.8 7.1 7.8 7.3 6.4 6.8 6.5 6.2 6.2 6.0 6.0 5.8 5.7
6.2 6.3 6.8 6.7 6.6 6.4 6.0 6.1 6.1 6.2 6.3 6.1 6.1 6.1 6.2 6.4 6.4 6.5 6.9 7.1 7.0 7.0 7.0 7.2 7.4 7.6 7.0 7.6 7.1 6.7 7.6 7.2 6.8 7.2 8.0 7.6 6.8 6.6 6.1 5.9 5.8 5.7 5.7 5.7 5.8
6.1 6.4 6.7 6.7 6.8 6.5 6.1 6.1 6.1 6.1 6.3 6.2 6.3 6.2 6.1 6.3 6.5 6.5 6.7 6.7 7.1 7.0 7.0 7.0 7.1 7.5 7.6 7.7 7.4 7.5 7.6 7.5 7.1 7.6 7.8 7.4 7.1 6.5 6.3 6.1 6.0 6.0 6.0 6.0 5.9
6.0 6.5 6.6 6.7 6.8 6.5 6.4 6.4 6.3 6.2 6.2 6.3 6.2 6.2 6.3 6.3 6.3 6.4 6.6 6.8 6.8 6.9 7.1 7.1 7.2 7.2 7.4 7.4 7.2 7.3 7.4 7.3 7.4 7.7 7.1 6.4 6.4 6.4 6.4 6.4 6.4 6.3 6.2 6.1 5.9
6.0 6.6 6.4 6.6 6.9 6.6 6.7 6.4 6.3 6.2 6.3 6.3 6.3 6.3 6.3 6.3 6.3 6.3 6.3 6.4 6.7 6.8 6.8 7.0 7.1 7.1 7.2 7.0 7.0 7.0 7.2 7.3 7.3 7.3 7.2 6.9 7.1 7.0 6.8 6.6 6.4 6.2 5.9 5.6 5.3
Wind_Speed
12 12 12 12 12 12 12 12 12 12 13 15 18 16 14 12 7 1 4 8 6 13 14 6 1 1 2 2 1 3 0 3 6 6 3 2 6 2 2 7 1 4 2 2 17
12 12 12 11 12 13 13 14 14 13 13 16 20 18 18 7 1 4 8 10 12 11 3 4 2 1 0 2 2 3 3 6 4 2 2 5 3 6 5 4 3 2 5 8 15
11 11 12 13 13 14 14 14 14 15 15 15 17 17 16 2 2 3 9 14 10 12 5 3 2 3 3 1 3 3 5 4 3 3 3 4 5 5 3 3 7 12 9 12 15
13 13 13 14 15 14 14 16 17 16 14 12 15 17 9 2 3 2 18 20 16 14 5 3 3 3 5 4 2 3 6 4 5 3 6 7 7 7 6 6 5 5 17 14 16
13 14 13 14 15 14 14 16 16 15 12 10 12 16 4 3 5 8 18 18 9 8 9 5 5 3 4 5 2 3 2 5 9 5 5 6 6 6 7 5 2 12 16 16 14
14 13 13 14 15 14 14 16 16 14 11 9 10 12 1 4 3 11 14 6 6 4 4 5 4 4 4 4 6 2 4 9 7 6 5 4 6 2 5 4 6 11 14 14 16
14 12 13 14 15 15 14 16 16 11 8 7 8 2 1 7 5 6 7 4 4 1 4 3 3 1 1 3 4 4 6 5 5 4 4 1 8 6 3 4 6 7 8 11 10
12 13 13 13 14 15 15 15 14 8 4 3 7 1 4 2 5 4 6 4 4 3 3 2 4 3 2 6 1 4 2 2 5 6 6 5 8 10 4 8 9 7 6 9 8
12 13 12 13 13 13 15 16 13 6 3 2 2 2 5 5 3 3 2 2 2 3 2 3 2 2 3 1 4 3 3 6 6 6 5 7 4 6 4 6 7 7 7 7 6
11 12 12 12 12 12 15 16 8 5 2 2 0 1 2 4 4 4 2 2 1 1 2 4 3 2 4 5 5 3 2 3 5 3 5 4 7 9 4 6 7 6 6 7 8
12 12 12 13 12 11 8 4 4 3 2 4 2 2 3 5 2 3 2 1 1 1 1 3 1 6 12 12 9 6 4 6 4 8 3 8 5 11 4 4 6 7 8 8 6
12 13 12 11 11 11 2 1 1 2 6 4 1 3 3 1 2 2 2 2 2 1 2 2 4 7 7 11 7 9 5 6 5 6 5 5 10 9 4 5 6 7 7 7 5
13 13 14 11 13 2 3 1 2 2 1 4 4 3 3 3 3 2 1 2 1 2 6 5 2 5 6 7 13 8 6 4 6 1 2 3 5 4 2 3 3 5 5 5 9
13 14 13 12 2 2 0 3 4 2 4 4 4 4 4 4 1 2 2 1 2 3 2 6 2 9 5 6 11 11 8 5 5 3 4 3 4 5 5 7 6 7 6 8 8
14 12 9 3 1 1 1 5 4 3 4 2 2 1 2 2 2 2 1 1 4 2 2 3 2 6 8 4 8 5 4 5 1 3 2 1 2 6 1 6 7 8 9 8 7
15 9 5 2 1 2 7 5 3 5 5 3 3 3 2 4 2 2 1 1 3 4 5 5 3 4 5 8 8 4 5 4 3 3 1 4 4 5 5 7 5 5 7 8 7
13 9 2 4 1 6 5 3 4 4 2 3 3 3 3 4 4 6 4 4 3 2 4 2 4 3 3 5 3 3 3 2 2 1 5 1 3 8 2 1 2 3 5 5 7
12 4 6 2 5 6 3 4 3 4 5 3 2 3 5 5 4 6 2 3 7 3 1 2 0 4 3 2 3 4 5 4 5 3 3 3 5 5 1 3 4 3 5 3 5
3 2 3 1 8 3 4 3 6 6 2 4 6 2 3 2 3 4 6 3 7 11 2 1 3 2 4 3 2 3 2 3 4 2 2 2 5 4 1 5 6 6 4 6 5
2 1 1 5 8 4 3 5 4 4 1 1 2 1 3 3 2 3 3 3 2 6 4 6 2 3 1 4 6 1 2 2 2 2 4 3 3 4 1 2 5 6 5 5 5
2 2 2 3 3 4 2 6 5 6 4 4 2 3 5 4 2 3 2 1 2 2 3 4 3 1 3 3 5 2 2 3 2 4 3 3 5 5 2 1 6 5 4 5 5
2 1 2 1 2 1 2 5 2 3 2 4 2 4 4 3 4 2 2 4 3 3 4 3 3 3 1 5 3 2 2 1 3 4 4 1 3 2 2 4 6 5 5 4 5
3 2 1 1 3 3 4 4 4 3 4 3 3 5 2 3 3 3 1 0 1 3 3 4 1 3 7 6 4 5 4 4 2 3 5 4 3 2 4 7 5 8 6 5 5
2 2 1 1 1 3 2 5 3 3 3 3 3 1 2 3 3 4 3 1 1 1 2 2 3 5 6 3 5 5 6 6 7 2 4 4 5 3 5 7 5 6 6 7 7
2 4 3 4 5 5 4 2 3 3 3 2 2 3 2 3 3 2 2 5 1 5 2 4 3 3 5 4 3 4 4 6 8 7 2 6 5 5 6 7 6 6 6 8 7
3 3 1 1 1 6 4 4 6 3 5 3 4 3 4 4 4 3 0 1 1 5 3 3 3 3 2 0 1 4 2 5 3 3 5 7 5 5 3 6 5 7 7 7 6
2 1 2 2 2 5 5 5 6 5 4 3 4 1 3 4 4 2 2 2 3 1 2 2 2 1 2 3 2 0 3 3 1 2 6 5 6 7 4 6 6 6 6 6 4
Wind_Direction
352 351 354 347 340 335 329 329 333 336 341 347 346 337 327 325 315 90 249 224 214 265 278 318 327 328 55 314 253 123 327 227 200 177 238 212 196 49 33 121 202 172 146 272 134
334 336 338 333 332 331 332 335 336 331 337 348 349 345 330 318 339 269 259 275 260 268 271 280 292 136 24 265 264 158 165 217 238 233 297 306 251 177 155 145 210 164 51 122 138
315 319 324 327 333 329 330 336 337 341 340 341 342 343 345 101 7 251 325 326 278 246 206 181 277 217 217 176 227 196 212 207 275 295 39 342 316 312 156 247 206 193 161 158 155
310 312 315 325 323 323 329 343 346 336 321 319 333 345 352 13 302 307 331 317 298 243 173 196 225 206 200 205 241 270 236 232 270 69 352 324 308 318 208 224 307 234 154 155 166
310 306 308 314 312 318 335 343 337 328 318 312 327 338 334 296 259 326 328 318 318 138 179 181 191 202 201 168 215 253 293 302 259 324 306 308 276 247 258 294 54 131 153 164 169
303 299 307 307 311 322 334 338 334 326 312 302 322 336 356 282 321 330 334 330 4 114 143 147 220 220 279 195 169 236 231 245 280 292 306 281 278 285 284 127 127 156 169 169 172
300 301 305 308 315 322 329 338 330 318 300 296 316 353 280 252 330 342 15 343 333 62 155 212 185 81 0 281 237 219 312 332 263 251 252 332 297 230 249 138 161 174 171 168 172
310 308 305 311 318 320 326 331 325 322 294 294 321 93 247 275 303 14 344 328 16 27 96 153 158 171 263 323 308 154 160 228 275 176 244 141 268 286 209 165 187 181 175 178 174
317 315 314 320 317 324 323 320 315 313 279 326 48 77 279 331 8 317 8 331 357 36 80 97 174 209 121 140 314 194 229 230 319 220 202 180 257 260 190 190 190 197 186 180 164
329 320 328 322 324 330 324 309 288 318 310 115 33 327 333 313 299 326 314 316 314 149 71 40 57 231 199 188 220 236 221 242 207 277 211 207 249 280 226 207 211 197 196 190 190
340 332 329 326 334 342 353 4 12 348 31 223 262 232 299 299 257 309 333 307 169 96 123 31 251 231 243 219 268 300 210 224 235 235 256 215 225 252 238 232 201 197 207 212 198
342 338 330 320 331 330 72 135 198 186 310 220 243 270 266 200 290 257 336 229 126 139 334 153 248 258 252 224 220 283 259 247 287 252 179 218 233 247 206 227 210 209 211 206 181
336 335 326 317 322 28 161 236 122 113 272 286 203 200 213 160 325 313 24 299 143 222 197 224 285 168 228 210 205 242 246 234 211 315 200 118 290 233 251 235 196 214 201 188 202
329 331 321 320 40 292 236 120 119 92 50 260 241 252 146 176 176 128 352 338 230 253 228 251 185 180 181 238 216 226 215 240 217 111 204 139 255 235 232 248 221 238 212 215 197
327 330 321 335 306 145 137 123 112 61 15 263 171 81 96 187 132 173 103 305 250 271 137 264 193 235 225 218 210 201 172 201 188 140 70 251 82 254 112 252 251 238 234 226 203
325 326 322 90 123 259 129 102 52 46 267 328 154 203 174 198 216 92 79 62 337 245 257 265 265 222 180 243 221 228 86 58 50 81 35 236 143 262 188 201 234 228 224 215 198
323 307 228 169 164 152 120 51 35 125 311 263 257 178 230 212 200 186 194 205 226 230 218 263 248 262 215 155 174 69 108 35 16 352 221 272 83 244 270 245 269 312 303 220 184
328 281 182 178 140 138 61 56 99 242 243 318 286 238 219 165 221 184 214 253 220 244 152 208 283 9 1 106 188 168 155 158 192 204 248 345 210 248 317 344 327 301 269 154 157
0 327 107 258 149 73 76 63 216 206 250 309 320 291 284 237 191 178 214 237 180 188 200 142 348 331 45 58 41 165 165 163 92 111 56 220 273 333 36 4 24 30 124 137 116
145 123 17 144 134 68 76 237 239 217 227 145 283 267 288 289 243 200 205 196 161 174 189 207 63 345 88 55 346 143 173 110 41 252 235 273 257 215 21 20 58 61 97 107 108
78 89 286 133 78 59 201 231 259 235 205 185 246 285 259 292 272 258 245 229 175 190 192 153 157 224 3 192 200 158 140 74 134 179 253 145 261 212 245 187 112 104 116 121 114
140 123 317 347 85 101 233 207 237 261 171 256 226 227 233 287 278 282 263 217 189 178 178 179 119 72 269 308 313 149 171 148 155 237 233 216 274 3 75 97 122 107 108 110 118
167 127 357 65 185 231 270 270 229 228 212 205 250 213 207 253 289 235 235 126 171 209 189 166 174 99 337 353 19 284 181 217 17 57 240 136 233 66 92 82 83 108 87 76 87
143 148 17 45 265 191 244 249 252 216 245 201 250 217 310 266 213 290 298 225 281 242 188 132 166 175 198 189 135 213 233 182 170 255 179 207 147 155 141 129 114 96 97 85 77
207 234 168 202 244 194 162 279 228 257 227 187 255 216 215 281 300 243 291 321 264 352 130 154 213 209 226 242 201 218 207 173 191 242 173 178 121 188 183 156 148 130 105 88 74
206 165 64 203 159 151 188 242 206 229 190 229 209 198 192 219 216 271 273 29 288 327 22 340 218 163 199 350 198 177 166 184 194 111 66 115 103 172 117 110 114 131 121 108 99
257 336 135 146 165 136 214 218 217 154 219 238 212 200 230 234 199 221 216 247 248 284 300 34 139 83 253 316 303 305 204 201 142 113 150 133 207 151 145 140 155 160 149 134 117